SCP
0 0 0 0 0 0 0 0 0 0 0 0 0 0 0 0 0 0 0 0 0 0 0 0 0 0 0 0 0 0 0 0 0 0 0 0 0 0 0 0 0 0 0
0 0 0 0 0 0 0 0 0 0 0 0 0 0 0 0 0 0 0 0 0 0 0 0 0 0 0 0 0 0 0 0 0 0 0 0 0 0 0 0 0 0 0
0 0 0 0 0 0 0 0 0 0 0 0 0 0 0 0 0 0 0 0 0 0 0 0 0 0 0 0 0 0 0 0 0 0 0 0 0 0 0 0 0 0 0
0 0 0 0 0 0 0 0 0 0 0 0 0 0 0 0 0 0 0 0 0 0 0 0 0 0 0 0 0 0 0 0 0 0 0 0 0 0 0 0 0 0 0
0 0 0 0 0 0 0 0 0 0 0 0 0 0 0 0 0 0 0 0 0 0 0 0 0 0 0 0 0 0 0 0 0 0 0 0 0 0 0 0 0 0 0
0 0 0 0 0 0 0 0 0 0 0 0 0 0 0 0 0 0 0 0 0 0 0 0 0 0 0 0 0 0 0 0 0 0 0 0 0 0 0 0 0 0 0
0 0 0 0 0 0 0 0 0 0 0 0 0 0 0 0 0 0 0 0 0 0 0 0 0 0 0 0 0 0 0 0 0 0 0 0 0 0 0 0 0 0 0
0 0 0 0 0 0 0 0 0 0 0 0 0 0 0 0 0 0 0 0 0 0 0 0 0 0 0 0 0 0 0 0 0 0 0 0 0 0 0 0 0 0 0
0 0 0 0 0 0 0 0 0 0 0 0 0 0 0 0 0 0 0 0 0 0 0 0 0 0 0 0 0 0 0 0 0 0 0 0 0 0 0 0 0 0 0
0 0 0 0 0 0 0 0 0 0 0 0 0 0 0 0 0 0 0 0 0 0 0 0 0 0 0 0 0 0 0 0 0 0 0 0 0 0 0 0 0 0 0
0 0 0 0 0 0 0 0 0 0 0 0 0 0 0 0 0 0 0 0 0 0 0 0 0 0 0 0 0 0 0 0 0 0 0 0 0 0 0 0 0 0 0
0 0 0 0 0 0 0 0 0 0 0 0 0 0 0 0 0 0 0 0 0 0 0 0 0 0 0 0 0 0 0 0 0 0 0 0 0 0 0 0 0 0 0
0 0 0 0 0 0 0 0 0 0 0 0 0 0 0 0 0 0 0 0 0 0 0 0 0 0 0 0 0 0 0 0 0 0 0 0 0 0 0 0 0 0 0
0 0 0 0 0 0 0 0 0 0 0 0 0 0 0 0 0 0 0 0 0 0 0 0 0 0 0 0 0 0 0 0 0 0 0 0 0 0 0 0 0 0 0
0 0 0 0 0 0 0 0 0 0 0 0 0 0 0 0 0 0 0 0 0 0 0 0 0 0 0 0 0 0 0 0 0 0 0 0 0 0 0 0 0 0 0
0 0 0 0 0 0 0 0 0 0 0 0 0 0 0 0 0 0 0 0 0 0 0 0 0 0 0 0 0 0 0 0 0 0 0 0 0 0 0 0 0 0 0
0 0 0 0 0 0 0 0 0 0 0 0 0 0 0 0 0 0 0 0 0 0 0 0 0 0 0 0 0 0 0 0 0 0 0 0 0 0 0 0 0 0 0
0 0 0 0 0 0 0 0 0 0 0 0 0 0 0 0 0 0 0 0 0 0 0 0 0 0 0 0 0 0 0 0 0 0 0 0 0 0 0 0 0 0 0
0 0 0 0 0 0 0 0 0 0 0 0 0 0 0 0 0 0 0 0 0 0 0 0 0 0 0 0 0 0 0 0 0 0 0 0 0 0 0 0 0 0 0
0 0 0 0 0 0 0 0 0 0 0 0 0 0 0 0 0 0 0 0 0 0 0 0 0 0 0 0 0 0 0 0 0 0 0 0 0 0 0 0 0 0 0
0 0 0 0 0 0 0 0 0 0 0 0 0 0 0 0 0 0 0 0 0 0 0 0 0 0 0 0 0 0 0 0 0 0 0 0 0 0 0 0 0 0 0
0 0 0 0 0 0 0 0 0 0 0 0 0 0 0 0 0 0 0 0 0 0 0 0 0 0 0 0 0 0 0 0 0 0 0 0 0 0 0 0 0 0 0
0 0 0 0 0 0 0 0 0 0 0 0 0 0 0 0 0 0 0 0 0 0 0 0 0 0 0 0 0 0 0 0 0 0 0 0 0 0 0 0 0 0 0
0 0 0 0 0 0 0 0 0 0 0 0 0 0 0 0 0 0 0 0 0 0 0 0 0 0 0 0 0 0 0 0 0 0 0 0 0 0 0 0 0 0 0
0 0 0 0 0 0 0 0 0 0 0 0 0 0 0 0 0 0 0 0 0 0 0 0 0 0 0 0 0 0 0 0 0 0 0 0 0 0 0 0 0 0 0
0 0 0 0 0 0 0 0 0 0 0 0 0 0 0 0 0 0 0 0 0 0 0 0 0 0 0 0 0 0 0 0 0 0 0 0 0 0 0 0 0 0 0
Wind_Speed_500mb
37 47 46 43 41 40 38 35 31 28 28 28 27 28 30 33 35 33 30 27 24 23 21 22 22 26 31 30 29 36 33 41 41 41 19 18 32 25 15 11 14 14 14
42 49 47 42 38 36 34 30 26 25 25 24 23 22 22 24 24 17 14 9 10 11 16 20 24 24 27 28 30 34 40 43 39 31 22 8 5 10 5 7 9 11 14
42 48 50 44 37 34 31 27 23 22 21 18 17 16 14 9 2 1 2 7 12 14 15 19 22 26 31 33 38 39 28 23 22 16 12 6 4 4 12 9 11 13 15
42 45 48 46 43 37 29 25 23 19 15 13 13 11 9 6 5 6 9 12 15 19 22 25 28 27 26 25 23 19 16 15 15 13 12 18 20 5 7 13 16 12 14
30 41 49 48 43 37 31 24 17 13 13 13 12 11 9 6 7 10 14 17 20 22 24 24 24 21 19 17 17 15 14 13 11 10 11 14 16 19 10 11 11 16 19
21 35 45 43 39 34 25 18 16 15 14 13 11 9 8 8 9 12 15 18 21 23 24 23 22 21 19 17 16 15 13 12 12 13 13 13 13 17 15 13 13 14 25
19 35 43 42 36 27 22 21 19 18 15 12 9 6 4 5 8 12 15 18 20 21 22 22 21 20 19 18 17 15 15 15 15 14 14 14 13 13 14 15 17 12 15
23 33 37 34 29 27 27 26 23 19 14 10 5 1 4 8 11 14 17 19 21 22 22 22 23 22 21 19 18 17 17 16 14 13 14 13 12 11 9 8 10 9 9
24 28 30 30 30 30 29 28 24 16 9 3 3 7 10 13 16 19 22 24 25 25 24 24 23 23 22 21 20 19 17 15 14 13 13 14 14 12 9 7 6 6 6
28 29 26 27 30 32 30 27 20 11 7 10 12 14 15 17 20 22 24 25 25 25 25 24 24 24 23 22 21 19 17 16 15 14 14 14 13 13 12 12 11 9 8
31 27 23 26 29 29 24 20 18 17 16 18 21 22 21 21 23 25 27 28 27 26 25 25 25 24 23 22 20 18 15 13 12 12 12 11 12 13 13 13 12 11 8
27 25 24 26 28 28 24 24 24 24 26 26 26 26 25 24 26 28 30 31 29 27 26 24 23 22 21 19 17 13 10 8 8 9 11 12 11 12 12 13 13 14 15
31 28 25 22 22 23 26 27 31 33 33 32 30 30 29 30 31 31 31 31 29 27 25 23 22 20 18 16 14 12 10 10 11 12 10 9 9 10 12 14 17 18 19
28 24 24 24 28 31 32 32 32 33 32 31 31 30 32 34 34 34 33 31 29 28 27 24 22 20 18 16 14 11 11 13 12 10 9 9 9 11 14 15 16 17 19
34 32 32 35 35 34 33 33 32 29 28 27 28 31 35 37 37 35 34 32 30 28 25 22 19 17 16 15 13 12 14 11 9 8 8 9 12 13 15 16 19 20 23
44 35 32 37 37 35 33 29 22 18 18 22 26 31 35 37 38 37 35 33 30 26 23 21 18 16 16 13 13 13 12 11 8 6 8 9 10 14 15 18 20 22 25
55 46 33 33 33 33 30 21 18 16 18 22 26 30 34 39 40 40 38 35 32 29 26 23 20 20 19 16 15 15 13 9 7 6 7 7 8 10 14 17 20 23 26
66 50 48 43 39 30 28 22 17 15 20 28 34 37 41 44 45 44 41 38 34 30 27 26 24 23 21 17 12 13 11 9 8 8 6 4 9 9 13 16 19 22 26
65 66 55 45 38 34 30 25 19 18 25 36 38 42 44 46 47 46 43 40 36 34 31 30 28 24 18 15 10 11 12 12 10 9 7 5 8 10 12 16 19 22 26
55 45 37 40 38 37 36 30 26 31 39 40 39 45 46 46 47 44 43 41 38 36 36 33 30 26 19 13 12 10 12 13 12 10 10 4 7 13 13 16 18 21 23
43 42 39 41 42 43 38 37 41 46 43 46 47 49 48 46 44 43 45 42 41 40 38 36 32 28 24 20 16 12 14 15 12 10 10 10 9 15 16 17 18 22 23
24 35 44 49 49 47 47 50 57 48 49 51 52 50 48 46 47 47 47 47 47 43 40 41 37 33 29 23 17 12 14 13 13 12 11 11 11 16 17 19 21 22 23
28 35 41 46 52 52 55 62 59 54 55 57 57 53 50 50 48 49 51 52 49 45 44 45 42 39 35 27 22 16 14 14 14 12 11 14 15 17 19 20 21 21 23
38 35 43 51 56 58 65 66 62 62 63 64 60 54 53 51 49 52 54 53 52 48 47 48 46 43 37 31 26 18 16 15 14 13 13 15 17 19 21 21 20 21 24
44 48 52 55 65 70 69 67 67 68 70 68 60 58 54 52 52 55 54 51 49 45 44 45 44 41 36 31 27 22 18 16 13 14 16 18 19 20 21 20 22 23 25
54 60 65 71 74 70 69 70 70 71 70 68 65 61 57 53 57 55 52 47 40 38 38 37 36 34 34 34 28 25 22 18 17 18 19 20 20 22 21 21 24 26 26
Wind_Direction_500mb
217 220 220 222 223 223 222 227 231 238 250 259 266 269 272 276 275 274 271 272 277 282 284 283 278 278 286 286 288 291 292 284 286 294 286 301 291 284 265 241 254 260 253
227 226 224 222 221 218 217 219 229 243 255 262 265 267 270 273 270 264 262 263 276 286 284 280 282 284 289 286 284 281 287 286 286 288 293 256 288 290 250 241 243 253 263
226 229 227 222 217 213 214 221 238 252 258 261 261 262 267 274 246 256 197 249 275 286 282 286 289 288 284 285 286 286 283 280 286 281 254 271 234 217 281 265 262 269 276
228 224 222 217 214 213 216 225 238 247 249 242 233 224 222 220 214 247 257 271 282 289 290 289 295 298 288 285 284 285 289 287 285 285 266 255 257 251 256 278 273 273 287
224 216 212 209 205 206 212 220 223 222 223 216 210 210 218 230 252 266 276 286 294 295 297 298 301 299 295 289 287 288 288 286 286 289 289 284 280 270 254 265 275 290 283
210 199 199 195 197 199 201 200 196 196 192 188 191 201 217 238 260 273 282 292 299 302 305 309 308 306 302 299 294 291 290 295 303 307 307 298 282 281 269 265 259 251 275
176 184 185 187 189 189 183 180 176 175 175 170 171 179 206 247 272 285 292 297 300 303 305 305 302 299 295 291 289 291 298 304 309 315 317 313 306 297 286 275 274 267 279
161 171 179 180 180 177 176 173 168 160 154 147 138 116 311 306 303 300 298 298 297 298 300 299 298 296 293 291 291 293 297 300 307 318 324 327 327 327 317 294 283 289 280
158 166 170 172 176 176 172 165 155 146 137 125 308 296 293 296 298 299 301 303 302 301 300 299 297 295 295 294 295 296 298 303 311 316 321 326 326 323 318 305 292 277 295
163 164 170 173 176 175 170 165 166 173 212 249 266 280 292 300 303 304 302 300 299 298 298 298 297 293 291 291 292 294 299 306 314 317 321 322 320 320 320 321 322 311 278
170 172 173 176 179 175 173 180 200 222 244 264 272 275 283 294 300 303 302 300 298 298 298 296 294 295 296 296 297 300 304 306 311 316 317 318 322 327 331 335 337 334 327
169 164 162 166 173 184 200 214 230 243 255 264 272 275 278 289 293 298 300 297 296 297 298 300 301 301 298 295 293 290 289 286 290 293 298 307 312 318 330 342 347 346 342
164 166 170 175 186 204 222 234 244 252 259 265 272 275 276 284 287 290 294 296 298 299 298 296 291 286 281 278 274 268 262 274 288 290 291 300 317 330 342 351 350 349 346
177 183 193 204 217 223 231 239 248 255 260 266 269 271 277 282 282 284 286 289 289 288 286 285 284 282 280 276 268 265 279 287 284 280 289 307 329 340 347 350 348 352 352
195 202 211 220 224 230 237 243 244 253 261 265 273 277 279 280 281 282 282 280 278 277 277 275 273 274 273 267 260 267 276 273 271 282 300 323 339 338 350 351 353 355 353
214 213 216 222 232 240 244 243 251 254 260 265 272 276 280 280 276 273 272 272 271 268 264 259 258 257 257 249 262 269 269 269 265 290 313 327 334 343 345 348 347 348 353
230 234 242 239 236 237 235 226 237 248 271 280 283 285 281 276 270 265 262 258 256 254 252 250 245 242 244 240 270 265 248 251 269 280 278 304 327 348 349 343 349 350 348
240 251 275 268 242 229 217 228 245 270 293 298 295 289 280 272 267 263 258 253 250 247 245 242 238 234 239 261 251 240 235 242 242 249 251 271 313 355 350 352 345 345 346
258 268 267 252 231 223 224 227 247 276 301 311 297 288 280 273 267 262 257 252 245 240 236 235 232 233 242 266 217 225 225 228 230 233 231 264 305 350 352 344 342 341 342
254 254 240 228 225 226 227 238 256 277 294 297 289 283 277 272 266 260 253 248 240 237 234 230 227 231 243 219 214 219 237 233 229 235 257 270 313 328 343 338 337 339 336
244 233 237 237 229 225 231 247 263 274 287 274 276 277 275 270 263 255 247 243 239 235 233 229 227 231 226 213 214 226 227 227 230 240 255 280 311 319 326 328 330 332 333
230 233 229 226 223 227 242 258 268 278 277 271 271 270 267 262 256 248 241 234 233 232 233 229 227 222 215 217 218 214 217 222 231 237 248 271 293 302 314 317 320 326 333
231 224 225 227 231 237 253 264 275 277 275 268 265 264 261 258 254 245 240 233 232 231 230 228 226 220 212 212 228 203 212 223 231 235 250 275 289 297 300 304 313 328 336
233 234 240 243 245 251 262 273 276 276 272 263 259 259 257 254 247 242 239 236 232 230 227 227 224 218 215 215 217 211 213 224 230 240 258 274 281 286 291 298 316 329 329
240 244 250 255 262 266 271 271 274 272 268 260 257 256 251 249 245 241 241 239 240 237 230 227 224 223 222 217 220 222 225 229 236 247 261 267 274 282 288 304 315 320 323
250 250 257 263 268 274 275 273 271 268 264 256 254 251 249 245 241 236 234 230 231 229 221 220 222 222 217 218 221 223 227 232 236 247 257 265 274 280 291 304 309 314 318
Wind_Speed_850mb
37 47 46 43 41 40 38 35 31 28 28 28 27 28 30 33 35 33 30 27 24 23 21 22 22 26 31 30 29 36 33 41 41 41 19 18 32 25 15 11 14 14 14
42 49 47 42 38 36 34 30 26 25 25 24 23 22 22 24 24 17 14 9 10 11 16 20 24 24 27 28 30 34 40 43 39 31 22 8 5 10 5 7 9 11 14
42 48 50 44 37 34 31 27 23 22 21 18 17 16 14 9 2 1 2 7 12 14 15 19 22 26 31 33 38 39 28 23 22 16 12 6 4 4 12 9 11 13 15
42 45 48 46 43 37 29 25 23 19 15 13 13 11 9 6 5 6 9 12 15 19 22 25 28 27 26 25 23 19 16 15 15 13 12 18 20 5 7 13 16 12 14
30 41 49 48 43 37 31 24 17 13 13 13 12 11 9 6 7 10 14 17 20 22 24 24 24 21 19 17 17 15 14 13 11 10 11 14 16 19 10 11 11 16 19
21 35 45 43 39 34 25 18 16 15 14 13 11 9 8 8 9 12 15 18 21 23 24 23 22 21 19 17 16 15 13 12 12 13 13 13 13 17 15 13 13 14 25
19 35 43 42 36 27 22 21 19 18 15 12 9 6 4 5 8 12 15 18 20 21 22 22 21 20 19 18 17 15 15 15 15 14 14 14 13 13 14 15 17 12 15
23 33 37 34 29 27 27 26 23 19 14 10 5 1 4 8 11 14 17 19 21 22 22 22 23 22 21 19 18 17 17 16 14 13 14 13 12 11 9 8 10 9 9
24 28 30 30 30 30 29 28 24 16 9 3 3 7 10 13 16 19 22 24 25 25 24 24 23 23 22 21 20 19 17 15 14 13 13 14 14 12 9 7 6 6 6
28 29 26 27 30 32 30 27 20 11 7 10 12 14 15 17 20 22 24 25 25 25 25 24 24 24 23 22 21 19 17 16 15 14 14 14 13 13 12 12 11 9 8
31 27 23 26 29 29 24 20 18 17 16 18 21 22 21 21 23 25 27 28 27 26 25 25 25 24 23 22 20 18 15 13 12 12 12 11 12 13 13 13 12 11 8
27 25 24 26 28 28 24 24 24 24 26 26 26 26 25 24 26 28 30 31 29 27 26 24 23 22 21 19 17 13 10 8 8 9 11 12 11 12 12 13 13 14 15
31 28 25 22 22 23 26 27 31 33 33 32 30 30 29 30 31 31 31 31 29 27 25 23 22 20 18 16 14 12 10 10 11 12 10 9 9 10 12 14 17 18 19
28 24 24 24 28 31 32 32 32 33 32 31 31 30 32 34 34 34 33 31 29 28 27 24 22 20 18 16 14 11 11 13 12 10 9 9 9 11 14 15 16 17 19
34 32 32 35 35 34 33 33 32 29 28 27 28 31 35 37 37 35 34 32 30 28 25 22 19 17 16 15 13 12 14 11 9 8 8 9 12 13 15 16 19 20 23
44 35 32 37 37 35 33 29 22 18 18 22 26 31 35 37 38 37 35 33 30 26 23 21 18 16 16 13 13 13 12 11 8 6 8 9 10 14 15 18 20 22 25
55 46 33 33 33 33 30 21 18 16 18 22 26 30 34 39 40 40 38 35 32 29 26 23 20 20 19 16 15 15 13 9 7 6 7 7 8 10 14 17 20 23 26
66 50 48 43 39 30 28 22 17 15 20 28 34 37 41 44 45 44 41 38 34 30 27 26 24 23 21 17 12 13 11 9 8 8 6 4 9 9 13 16 19 22 26
65 66 55 45 38 34 30 25 19 18 25 36 38 42 44 46 47 46 43 40 36 34 31 30 28 24 18 15 10 11 12 12 10 9 7 5 8 10 12 16 19 22 26
55 45 37 40 38 37 36 30 26 31 39 40 39 45 46 46 47 44 43 41 38 36 36 33 30 26 19 13 12 10 12 13 12 10 10 4 7 13 13 16 18 21 23
43 42 39 41 42 43 38 37 41 46 43 46 47 49 48 46 44 43 45 42 41 40 38 36 32 28 24 20 16 12 14 15 12 10 10 10 9 15 16 17 18 22 23
24 35 44 49 49 47 47 50 57 48 49 51 52 50 48 46 47 47 47 47 47 43 40 41 37 33 29 23 17 12 14 13 13 12 11 11 11 16 17 19 21 22 23
28 35 41 46 52 52 55 62 59 54 55 57 57 53 50 50 48 49 51 52 49 45 44 45 42 39 35 27 22 16 14 14 14 12 11 14 15 17 19 20 21 21 23
38 35 43 51 56 58 65 66 62 62 63 64 60 54 53 51 49 52 54 53 52 48 47 48 46 43 37 31 26 18 16 15 14 13 13 15 17 19 21 21 20 21 24
44 48 52 55 65 70 69 67 67 68 70 68 60 58 54 52 52 55 54 51 49 45 44 45 44 41 36 31 27 22 18 16 13 14 16 18 19 20 21 20 22 23 25
54 60 65 71 74 70 69 70 70 71 70 68 65 61 57 53 57 55 52 47 40 38 38 37 36 34 34 34 28 25 22 18 17 18 19 20 20 22 21 21 24 26 26
Wind_Direction_850mb
217 220 220 222 223 223 222 227 231 238 250 259 266 269 272 276 275 274 271 272 277 282 284 283 278 278 286 286 288 291 292 284 286 294 286 301 291 284 265 241 254 260 253
227 226 224 222 221 218 217 219 229 243 255 262 265 267 270 273 270 264 262 263 276 286 284 280 282 284 289 286 284 281 287 286 286 288 293 256 288 290 250 241 243 253 263
226 229 227 222 217 213 214 221 238 252 258 261 261 262 267 274 246 256 197 249 275 286 282 286 289 288 284 285 286 286 283 280 286 281 254 271 234 217 281 265 262 269 276
228 224 222 217 214 213 216 225 238 247 249 242 233 224 222 220 214 247 257 271 282 289 290 289 295 298 288 285 284 285 289 287 285 285 266 255 257 251 256 278 273 273 287
224 216 212 209 205 206 212 220 223 222 223 216 210 210 218 230 252 266 276 286 294 295 297 298 301 299 295 289 287 288 288 286 286 289 289 284 280 270 254 265 275 290 283
210 199 199 195 197 199 201 200 196 196 192 188 191 201 217 238 260 273 282 292 299 302 305 309 308 306 302 299 294 291 290 295 303 307 307 298 282 281 269 265 259 251 275
176 184 185 187 189 189 183 180 176 175 175 170 171 179 206 247 272 285 292 297 300 303 305 305 302 299 295 291 289 291 298 304 309 315 317 313 306 297 286 275 274 267 279
161 171 179 180 180 177 176 173 168 160 154 147 138 116 311 306 303 300 298 298 297 298 300 299 298 296 293 291 291 293 297 300 307 318 324 327 327 327 317 294 283 289 280
158 166 170 172 176 176 172 165 155 146 137 125 308 296 293 296 298 299 301 303 302 301 300 299 297 295 295 294 295 296 298 303 311 316 321 326 326 323 318 305 292 277 295
163 164 170 173 176 175 170 165 166 173 212 249 266 280 292 300 303 304 302 300 299 298 298 298 297 293 291 291 292 294 299 306 314 317 321 322 320 320 320 321 322 311 278
170 172 173 176 179 175 173 180 200 222 244 264 272 275 283 294 300 303 302 300 298 298 298 296 294 295 296 296 297 300 304 306 311 316 317 318 322 327 331 335 337 334 327
169 164 162 166 173 184 200 214 230 243 255 264 272 275 278 289 293 298 300 297 296 297 298 300 301 301 298 295 293 290 289 286 290 293 298 307 312 318 330 342 347 346 342
164 166 170 175 186 204 222 234 244 252 259 265 272 275 276 284 287 290 294 296 298 299 298 296 291 286 281 278 274 268 262 274 288 290 291 300 317 330 342 351 350 349 346
177 183 193 204 217 223 231 239 248 255 260 266 269 271 277 282 282 284 286 289 289 288 286 285 284 282 280 276 268 265 279 287 284 280 289 307 329 340 347 350 348 352 352
195 202 211 220 224 230 237 243 244 253 261 265 273 277 279 280 281 282 282 280 278 277 277 275 273 274 273 267 260 267 276 273 271 282 300 323 339 338 350 351 353 355 353
214 213 216 222 232 240 244 243 251 254 260 265 272 276 280 280 276 273 272 272 271 268 264 259 258 257 257 249 262 269 269 269 265 290 313 327 334 343 345 348 347 348 353
230 234 242 239 236 237 235 226 237 248 271 280 283 285 281 276 270 265 262 258 256 254 252 250 245 242 244 240 270 265 248 251 269 280 278 304 327 348 349 343 349 350 348
240 251 275 268 242 229 217 228 245 270 293 298 295 289 280 272 267 263 258 253 250 247 245 242 238 234 239 261 251 240 235 242 242 249 251 271 313 355 350 352 345 345 346
258 268 267 252 231 223 224 227 247 276 301 311 297 288 280 273 267 262 257 252 245 240 236 235 232 233 242 266 217 225 225 228 230 233 231 264 305 350 352 344 342 341 342
254 254 240 228 225 226 227 238 256 277 294 297 289 283 277 272 266 260 253 248 240 237 234 230 227 231 243 219 214 219 237 233 229 235 257 270 313 328 343 338 337 339 336
244 233 237 237 229 225 231 247 263 274 287 274 276 277 275 270 263 255 247 243 239 235 233 229 227 231 226 213 214 226 227 227 230 240 255 280 311 319 326 328 330 332 333
230 233 229 226 223 227 242 258 268 278 277 271 271 270 267 262 256 248 241 234 233 232 233 229 227 222 215 217 218 214 217 222 231 237 248 271 293 302 314 317 320 326 333
231 224 225 227 231 237 253 264 275 277 275 268 265 264 261 258 254 245 240 233 232 231 230 228 226 220 212 212 228 203 212 223 231 235 250 275 289 297 300 304 313 328 336
233 234 240 243 245 251 262 273 276 276 272 263 259 259 257 254 247 242 239 236 232 230 227 227 224 218 215 215 217 211 213 224 230 240 258 274 281 286 291 298 316 329 329
240 244 250 255 262 266 271 271 274 272 268 260 257 256 251 249 245 241 241 239 240 237 230 227 224 223 222 217 220 222 225 229 236 247 261 267 274 282 288 304 315 320 323
250 250 257 263 268 274 275 273 271 268 264 256 254 251 249 245 241 236 234 230 231 229 221 220 222 222 217 218 221 223 227 232 236 247 257 265 274 280 291 304 309 314 318